Overview Statistics Trail Chart Weather Telemetry Raw packets
 

This is the latest recevied weather packets stored in our database for station/object WA6ODQ-13. If no packets are shown the sender has not sent any weather packets the latest 10 day(s).

<< 85 86 87 88 89 90 91 >>
Time Temp. Humidity Pressure Rain* Wind** Luminosity Snow
1788043836 30° C 40% 1010 hPa 0 mm - 479 W/m² -
1788043531 30° C 41% 1010.1 hPa 0 mm - 490 W/m² -
1788043231 30° C 40% 1010 hPa 0 mm - 502 W/m² -
1788042925 30° C 37% 1010 hPa 0 mm - 514 W/m² -
1788042621 30° C 39% 1010.3 hPa 0 mm - 524 W/m² -
1788042315 30° C 40% 1010.1 hPa 0 mm - 534 W/m² -
1788042010 30° C 38% 1010.2 hPa 0 mm - 545 W/m² -
1788041705 30° C 36% 1010.4 hPa 0 mm - 555 W/m² -
1788041401 30° C 39% 1010.7 hPa 0 mm - 565 W/m² -
1788041099 28.89° C 39% 1010.5 hPa 0 mm - 574 W/m² -
1788040798 28.89° C 40% 1010.6 hPa 0 mm - 583 W/m² -
1788040492 28.89° C 40% 1010.5 hPa 0 mm - 591 W/m² -
1788040189 28.89° C 40% 1010.6 hPa 0 mm - 600 W/m² -
1788039888 28.89° C 40% 1010.9 hPa 0 mm - 607 W/m² -
1788039583 28.89° C 39% 1010.7 hPa 0 mm - 614 W/m² -
1788039278 28.89° C 41% 1011 hPa 0 mm - 622 W/m² -
1788038973 28.33° C 41% 1010.8 hPa 0 mm - 627 W/m² -
1788038669 28.89° C 40% 1010.9 hPa 0 mm - 634 W/m² -
1788038367 28.89° C 40% 1011 hPa 0 mm - 641 W/m² -
1788038063 28.89° C 40% 1011 hPa 0 mm - 646 W/m² -
1788037763 29.44° C 40% 1010.9 hPa 0 mm - 652 W/m² -
1788037457 28.33° C 41% 1011.1 hPa 0 mm - 657 W/m² -
1788037152 28.33° C 42% 1011.1 hPa 0 mm - 660 W/m² -
1788036852 28.33° C 42% 1011.1 hPa 0 mm - 665 W/m² -
1788036549 27.78° C 44% 1011.2 hPa 0 mm - 669 W/m² -

* Rain latest hour (hover to see other rain measurements)
** Current wind speed in m/s (hover to see current wind gust speed)